[[{"header":{"parameterUnit":"m.s-1","parameterCategory":1,"la1":30.2991,"la2":30.254,"lo1":-89.0895,"lo2":-89.0444,"dy":0.0017,"dx":0.0017,"nx":28,"ny":28,"refTime":"2024-06-03T09:00:00:Z","depth":0,"parameterNumber":2,"parameterNumberName":"U-component_of_WINDS"},"data":[0,0,0,0,0,0,0,0,0,0,0,0,0,0,0,0,0,0,0,0,0,0,0,0,0,0,0,0,0,0,0,0,0,0,0,0,0,0,0,0,0,0,0,0,0,0,0,0,0,0,0,0,0,0,0,0,0,0,-0.9981,-0.9981,0,-0.995,-0.9949,-0.9949,-0.9939,-0.9939,-0.9939,-0.994,-0.9907,-0.9906,-0.9905,0,0,0,0,0,0,0,0,0,0,0,0,0,-1.0033,-1.0032,-0.9981,-0.9981,-0.998,-0.995,-0.9949,-0.9949,-0.9939,-0.9939,-0.994,-0.994,-0.9907,-0.9906,-0.9905,0,0,0,0,0,0,0,0,0,0,0,0,0,-1.0007,-1.0032,-0.9981,-0.9972,-0.9971,-0.995,-0.9949,-0.9949,-0.9939,-0.9939,-0.994,-0.994,-0.9908,-0.9906,-0.9905,-0.9891,0,0,-0.99,-0.9899,0,0,0,0,0,0,0,0,-1.0008,-1.0005,-0.9974,-0.9972,-0.9971,-0.9949,-0.9955,-0.9929,-0.9939,-0.9951,-0.994,-0.994,-0.9921,-0.9918,-0.9912,-0.9889,-0.9888,-0.99,-0.9899,-0.9898,-0.9898,0,0,0,0,0,0,0,-1.001,-1.0006,-0.9969,-0.9973,-0.9972,-0.9969,-0.9966,-0.995,-0.9935,-0.995,-0.9949,-0.9946,-0.992,-0.9913,-0.9911,-0.9887,-0.99,-0.9899,-0.9898,-0.9897,-0.9851,-0.9851,0,0,0,0,0,0,-1.0013,-1.0008,-0.997,-0.9968,-0.9991,-0.9968,-0.9964,-0.9956,-0.9935,-0.9932,-0.9946,-0.9945,-0.9916,-0.9912,-0.9909,-0.9891,-0.9898,-0.9897,-0.9896,-0.9851,-0.9851,-0.9851,0,0,0,0,0,0,-1.0015,-1.001,-0.9971,-0.9987,-0.9982,-0.9967,-0.9957,-0.9955,-0.9948,-0.9932,-0.9929,-0.9941,-0.9916,-0.9912,-0.9895,-0.989,-0.9896,-0.9895,-0.9852,-0.9851,-0.9851,-0.9855,0,0,0,0,0,0,-1.0016,-1.0011,-1.0005,-0.9987,-0.9981,-0.9957,-0.9957,-0.9954,-0.9945,-0.9945,-0.9927,-0.9924,-0.9915,-0.9898,-0.9894,-0.9888,-0.9894,-0.9852,-0.9852,-0.9851,-0.9855,-0.9855,-0.9855,0,0,0,0,0,-1.0018,-1.0008,-1.0005,-1.0,-0.9974,-0.9957,-0.9954,-0.9944,-0.9945,-0.9939,-0.9929,-0.9925,-0.9891,-0.9896,-0.9892,-0.9885,-0.9852,-0.9852,-0.9851,-0.9856,-0.9855,-0.9855,0,0,0,0,0,0,-1.0025,-1.0005,-1.0002,-0.9986,-0.9973,-0.9956,-0.9948,-0.9944,-0.9931,-0.9931,-0.9919,-0.9915,-0.9899,-0.9891,-0.9896,-0.987,-0.9872,-0.987,-0.9877,-0.9876,-0.9876,-0.9878,-0.9892,0,0,0,0,0,-1.0025,-1.0013,-0.9996,-0.9983,-0.9977,-0.9964,-0.9956,-0.9949,-0.9936,-0.9931,-0.9919,-0.9906,-0.9892,-0.9884,-0.987,-0.9854,-0.985,-0.9848,-0.9847,-0.9847,-0.9846,-0.9836,-0.9835,-0.9848,-0.9848,-0.9848,0,0,-1.0024,-1.0012,-1.0005,-0.9984,-0.9974,-0.9961,-0.9959,-0.9946,-0.9937,-0.9929,-0.9912,-0.9903,-0.9888,-0.9872,-0.9864,-0.9864,-0.9841,-0.9846,-0.9846,-0.9845,-0.9835,-0.9834,-0.9833,-0.9848,-0.9848,-0.9848,0,0,-1.0017,-1.0006,-0.9994,-0.9984,-0.9968,-0.9959,-0.9956,-0.9939,-0.9933,-0.9916,-0.991,-0.9898,-0.9876,-0.9865,-0.9856,-0.9844,-0.984,-0.984,-0.9838,-0.9829,-0.9827,-0.9826,-0.9822,-0.982,-0.9839,-0.9839,-0.9839,0,-1.0018,-0.9999,-0.9989,-0.9976,-0.9967,-0.9959,-0.9946,-0.9937,-0.9917,-0.9911,-0.9912,-0.9883,-0.9872,-0.9853,-0.985,-0.9843,-0.9839,-0.9842,-0.9828,-0.9827,-0.9826,-0.9822,-0.982,-0.9839,-0.9839,-0.9839,-0.9839,0,-1.0001,-0.9988,-0.998,-0.9961,-0.9951,-0.9939,-0.9927,-0.9918,-0.9912,-0.9903,-0.9887,-0.9873,-0.9857,-0.9852,-0.9846,-0.9832,-0.9832,-0.9831,-0.9832,-0.9825,-0.9821,-0.9819,-0.9839,-0.9839,-0.9839,-0.9839,0,0,-0.9997,-0.9973,-0.997,-0.9961,-0.9943,-0.9933,-0.992,-0.9904,-0.9897,-0.9883,-0.9872,-0.9853,-0.9851,-0.9842,-0.9835,-0.9827,-0.9817,-0.9826,-0.9825,-0.9825,-0.98,-0.9801,-0.9799,-0.9814,-0.9814,-0.9814,-0.9801,0,-0.9987,-0.9963,-0.9954,-0.9935,-0.9922,-0.9914,-0.9903,-0.989,-0.9882,-0.987,-0.986,-0.9846,-0.9845,-0.9839,-0.9831,-0.982,-0.9812,-0.9821,-0.9803,-0.9803,-0.9807,-0.9797,-0.9798,-0.9787,-0.98,-0.9799,-0.9799,0,-0.9972,-0.9959,-0.9938,-0.9921,-0.9916,-0.9906,-0.989,-0.9879,-0.9864,-0.9859,-0.9848,-0.9841,-0.9827,-0.9829,-0.9809,-0.9815,-0.9807,-0.9801,-0.98,-0.9798,-0.9801,-0.9794,-0.9783,-0.9782,-0.9796,-0.9796,-0.9797,0,-0.9971,-0.9948,-0.9933,-0.9926,-0.9905,-0.9898,-0.989,-0.9876,-0.9867,-0.9853,-0.9847,-0.9832,-0.9824,-0.9812,-0.9801,-0.9804,-0.9782,-0.9783,-0.9777,-0.9777,-0.9772,-0.9773,-0.976,-0.9768,-0.9768,-0.9768,-0.9768,0,-0.9961,-0.9948,-0.9932,-0.9923,-0.9908,-0.9897,-0.9884,-0.9875,-0.9862,-0.985,-0.9843,-0.9832,-0.9819,-0.9806,-0.9798,-0.9783,-0.9779,-0.9774,-0.9771,-0.9774,-0.9775,-0.9769,-0.9769,-0.9767,-0.9767,-0.9768,-0.9768,0,-0.9957,-0.9946,-0.9928,-0.9911,-0.9906,-0.9896,-0.9881,-0.9872,-0.9862,-0.9848,-0.9844,-0.9829,-0.9814,-0.9802,-0.9783,-0.9777,-0.9761,-0.9759,-0.9766,-0.9765,-0.9758,-0.9759,-0.9741,-0.9738,-0.9748,-0.9748,-0.9748,0,-0.9951,-0.9942,-0.9923,-0.9915,-0.9906,-0.9893,-0.9883,-0.9872,-0.9863,-0.9845,-0.9838,-0.9822,-0.9809,-0.9785,-0.9773,-0.9757,-0.9755,-0.9749,-0.9752,-0.9755,-0.9754,-0.9755,-0.9754,-0.9749,-0.9749,-0.9749,-0.9749,0,-0.9942,-0.9937,-0.9924,-0.9908,-0.9897,-0.9885,-0.9872,-0.9866,-0.9852,-0.9842,-0.9826,-0.9816,-0.9796,-0.978,-0.9764,-0.9755,-0.9749,-0.9748,-0.9746,-0.9748,-0.9753,-0.975,-0.9764,-0.9748,-0.9748,-0.9748,-0.9749,-0.9749,-0.9937,-0.9928,-0.9913,-0.9899,-0.9888,-0.9876,-0.9866,-0.9855,-0.9842,-0.9825,-0.9819,-0.9803,-0.9788,-0.9766,-0.9756,-0.9743,-0.9743,-0.974,-0.9739,-0.9738,-0.9738,-0.9755,-0.974,-0.974,-0.974,-0.974,-0.974,0,-0.9927,-0.9917,-0.9904,-0.9886,-0.9875,-0.9871,-0.9856,-0.9847,-0.9833,-0.982,-0.9807,-0.9789,-0.9774,-0.976,-0.9744,-0.9736,-0.9733,-0.9732,-0.9733,-0.973,-0.9739,-0.9743,-0.9735,-0.9735,-0.9735,-0.9735,-0.9735,-0.9735,-0.9921,-0.9905,-0.9898,-0.9877,-0.9867,-0.9851,-0.9843,-0.9832,-0.9821,-0.9801,-0.9789,-0.978,-0.9766,-0.9749,-0.9735,-0.9731,-0.9725,-0.9725,-0.9721,-0.9729,-0.973,-0.9731,-0.9734,-0.9724,-0.9724,-0.9713,-0.9713,-0.9713]},{"header":{"parameterUnit":"m.s-1","parameterCategory":1,"la1":30.2991,"la2":30.254,"lo1":-89.0895,"lo2":-89.0444,"dy":0.0017,"dx":0.0017,"nx":28,"ny":28,"refTime":"2024-06-03T09:00:00:Z","depth":0,"parameterNumber":3,"parameterNumberName":"V-component_of_WINDS"},"data":[0,0,0,0,0,0,0,0,0,0,0,0,0,0,0,0,0,0,0,0,0,0,0,0,0,0,0,0,0,0,0,0,0,0,0,0,0,0,0,0,0,0,0,0,0,0,0,0,0,0,0,0,0,0,0,0,0,0,4.3335,4.3334,0,4.3271,4.327,4.3269,4.3158,4.3156,4.3154,4.3152,4.3088,4.3088,4.3088,0,0,0,0,0,0,0,0,0,0,0,0,0,4.3362,4.3363,4.3335,4.3334,4.3333,4.3271,4.327,4.3269,4.3158,4.3156,4.3153,4.3151,4.3088,4.3088,4.3088,0,0,0,0,0,0,0,0,0,0,0,0,0,4.333,4.3363,4.3335,4.327,4.3264,4.3271,4.327,4.3269,4.3159,4.3155,4.3152,4.3149,4.3088,4.3088,4.3088,4.3154,0,0,4.309,4.309,0,0,0,0,0,0,0,0,4.3332,4.3329,4.328,4.3275,4.3267,4.3219,4.3256,4.323,4.3159,4.3199,4.3151,4.3148,4.3134,4.313,4.3125,4.3151,4.3148,4.309,4.309,4.309,4.309,0,0,0,0,0,0,0,4.3334,4.3331,4.3309,4.328,4.3272,4.3245,4.3237,4.3251,4.3185,4.3195,4.3187,4.3181,4.313,4.3125,4.3123,4.3147,4.309,4.309,4.309,4.309,4.3222,4.3225,0,0,0,0,0,0,4.3346,4.3334,4.3311,4.3307,4.3292,4.3247,4.3238,4.3238,4.3184,4.3173,4.3183,4.3176,4.3126,4.3123,4.3121,4.3193,4.309,4.309,4.3091,4.3219,4.3223,4.3226,0,0,0,0,0,0,4.3347,4.3345,4.3314,4.3318,4.3312,4.325,4.3251,4.3238,4.3233,4.3176,4.3163,4.3191,4.3124,4.312,4.3146,4.3189,4.3091,4.3091,4.3215,4.322,4.3225,4.3339,0,0,0,0,0,0,4.3348,4.3346,4.337,4.332,4.3312,4.3341,4.3253,4.3239,4.3234,4.3223,4.3179,4.3169,4.3121,4.3146,4.3147,4.3188,4.3091,4.3211,4.3217,4.3223,4.3331,4.3347,4.3361,0,0,0,0,0,4.3349,4.3405,4.3372,4.3369,4.3341,4.3343,4.3339,4.3282,4.3238,4.3262,4.3224,4.317,4.3184,4.315,4.3149,4.3191,4.3208,4.3216,4.3223,4.3324,4.3344,4.336,0,0,0,0,0,0,4.3463,4.3397,4.3359,4.34,4.3378,4.3324,4.3353,4.3305,4.3295,4.3286,4.3216,4.3207,4.3242,4.3219,4.3182,4.3251,4.3188,4.3195,4.3265,4.3283,4.3298,4.3302,4.3092,0,0,0,0,0,4.3492,4.3499,4.3442,4.3484,4.3474,4.3416,4.3415,4.3373,4.3347,4.3337,4.3302,4.328,4.3279,4.328,4.3276,4.3327,4.3316,4.3356,4.3371,4.3383,4.3391,4.3415,4.3432,4.3251,4.3251,4.325,0,0,4.3554,4.3519,4.3528,4.3505,4.3483,4.3492,4.3409,4.3422,4.3428,4.3339,4.3361,4.3335,4.3305,4.3344,4.336,4.3326,4.3438,4.3393,4.3403,4.3403,4.3424,4.3442,4.3457,4.3256,4.3255,4.3254,0,0,4.367,4.3645,4.3676,4.3656,4.3623,4.3583,4.3591,4.3545,4.3523,4.3544,4.3478,4.3484,4.3485,4.3466,4.3457,4.3566,4.3515,4.3567,4.3644,4.3669,4.3683,4.3696,4.3734,4.3749,4.3574,4.3574,4.3575,0,4.3751,4.3761,4.3699,4.3716,4.3708,4.3628,4.3659,4.3642,4.3611,4.3607,4.357,4.3568,4.3542,4.3575,4.3602,4.3597,4.3604,4.3571,4.3686,4.3698,4.3709,4.3744,4.3759,4.3581,4.358,4.3579,4.3579,0,4.3862,4.387,4.3899,4.387,4.3865,4.389,4.3831,4.3834,4.3793,4.3757,4.378,4.3746,4.3734,4.3738,4.3699,4.3766,4.3746,4.3699,4.3633,4.3733,4.3766,4.3779,4.359,4.3588,4.3586,4.3584,0,0,4.4048,4.3983,4.3994,4.398,4.3938,4.3943,4.3964,4.3951,4.3954,4.3935,4.3951,4.3953,4.3908,4.3898,4.3855,4.3877,4.3964,4.3826,4.3825,4.3853,4.4036,4.4071,4.4088,4.3931,4.3933,4.3935,4.4038,0,4.4155,4.4185,4.413,4.4174,4.4181,4.4105,4.4123,4.4099,4.4067,4.4068,4.4032,4.4034,4.3976,4.3969,4.3987,4.395,4.4,4.3942,4.3944,4.3945,4.3954,4.4105,4.4142,4.4241,4.405,4.4052,4.4054,0,4.4283,4.427,4.4315,4.4269,4.427,4.4287,4.427,4.4272,4.4244,4.4219,4.4207,4.4156,4.4173,4.4111,4.4133,4.4095,4.4092,4.4074,4.4077,4.4074,4.4005,4.4106,4.4271,4.4286,4.4073,4.4072,4.407,0,4.4414,4.4407,4.4432,4.4422,4.437,4.4384,4.4363,4.4331,4.4327,4.4312,4.4309,4.4297,4.4291,4.4283,4.423,4.419,4.4259,4.4192,4.4238,4.424,4.4256,4.4256,4.4423,4.4256,4.4256,4.4255,4.4255,0,4.4539,4.4569,4.449,4.4506,4.4538,4.4474,4.4507,4.4478,4.4451,4.4459,4.4393,4.4403,4.4333,4.4335,4.4294,4.4319,4.4317,4.4297,4.4285,4.4302,4.4305,4.43,4.4291,4.4259,4.4258,4.4258,4.4257,0,4.4689,4.4638,4.4661,4.4609,4.4597,4.4623,4.4578,4.4591,4.4554,4.4566,4.4566,4.4508,4.4507,4.4454,4.4442,4.4414,4.4456,4.4432,4.4466,4.4458,4.4507,4.4503,4.4676,4.4695,4.4517,4.4519,4.452,0,4.4772,4.4794,4.4744,4.4745,4.4727,4.473,4.4725,4.4663,4.4661,4.4629,4.4646,4.4639,4.4631,4.4633,4.459,4.4581,4.4556,4.4617,4.4554,4.457,4.4556,4.4555,4.4557,4.4631,4.4633,4.4635,4.4636,0,4.4925,4.4898,4.4893,4.488,4.4875,4.4862,4.4844,4.4849,4.478,4.4781,4.4779,4.4773,4.476,4.4755,4.4737,4.4715,4.4665,4.4656,4.4666,4.4684,4.4702,4.4692,4.4501,4.4653,4.4651,4.465,4.4649,4.4648,4.5043,4.5059,4.5026,4.5023,4.5003,4.4988,4.4997,4.4961,4.4958,4.4943,4.4906,4.491,4.488,4.4852,4.4834,4.4836,4.4805,4.482,4.4824,4.4829,4.4838,4.4702,4.4833,4.4832,4.4832,4.4831,4.4831,0,4.5192,4.5167,4.5165,4.5142,4.5139,4.5091,4.5069,4.507,4.5074,4.5051,4.5044,4.5041,4.5035,4.4992,4.4981,4.4991,4.4967,4.499,4.4988,4.4984,4.4866,4.4858,4.5009,4.5009,4.5009,4.5009,4.5009,4.5009,4.5269,4.5292,4.5262,4.5274,4.5249,4.5252,4.5243,4.5229,4.5209,4.521,4.5204,4.5176,4.5144,4.513,4.5123,4.511,4.5109,4.5139,4.5119,4.501,4.4993,4.4976,4.4968,4.514,4.514,4.5236,4.5237,4.5238]}]]